contact:dominique.lefevre@mio.osupytheas.fr, maurice.libes@osupytheas.fr
Project:EMSO Ligure-ouest http://www.emso-fr.org/EMSO-France
Sensor Aquadopp, line 13 Serial AQD14315 
DOI : "https://doi.org/10.17882/74513; https://doi.org/10.17882/83244" 
Title:EMSO Ligure Ouest : Data ligne ALBATROSS capteur AQUADOPP - deploiement 2021
Id,Date,Profondeur,Latitude,Longitude,X_East,Y_North,Z_Up,Amplitude_X,Amplitude_Y,Amplitude_Z,Batterie,SoundSpeed,Heading,Pitch,Roll,Pressure,Temperature,Speed,Direction
, , m, degrees North, degrees East, m.s-1, m.s-1,m.s-1, 1, 1, 1, Volt, m.s-1, degree, degree, degree, dbar, degree_C, m.s-1, degree
07,2022-09-20T23:30:00,1500.0,42.79,6.0312,-0.009,-0.016,0.01,49.0,47.0,47.0,12.8,1504.1,279.7,0.1,0.7,1475.005,13.12,0.018,209.4
07,2022-09-21T00:00:00,1500.0,42.79,6.0312,-0.011,-0.019,0.007,47.0,47.0,50.0,12.8,1504.1,279.2,-0.2,1.0,1475.015,13.12,0.021,210.1
07,2022-09-21T00:30:00,1500.0,42.79,6.0312,-0.019,-0.023,0.01,47.0,53.0,47.0,12.8,1504.0,276.8,-0.2,0.8,1475.021,13.11,0.029,219.6
07,2022-09-21T01:00:00,1500.0,42.79,6.0312,-0.025,-0.019,0.003,48.0,47.0,48.0,12.8,1504.0,277.3,0.1,0.7,1475.031,13.11,0.031,232.8
07,2022-09-21T01:30:00,1500.0,42.79,6.0312,-0.027,-0.013,0.004,49.0,49.0,48.0,12.8,1504.0,276.5,0.1,0.8,1475.038,13.11,0.029,244.3
07,2022-09-21T02:00:00,1500.0,42.79,6.0312,-0.018,-0.014,0.003,48.0,49.0,48.0,12.8,1504.0,274.7,0.1,0.7,1475.039,13.11,0.022,232.1
07,2022-09-21T02:30:00,1500.0,42.79,6.0312,-0.02,-0.014,0.002,48.0,53.0,48.0,12.8,1504.0,276.4,0.0,0.9,1475.028,13.11,0.024,235.0
07,2022-09-21T03:00:00,1500.0,42.79,6.0312,-0.036,-0.01,0.003,49.0,48.0,48.0,12.8,1504.0,275.0,-0.2,0.8,1475.058,13.11,0.037,254.5
07,2022-09-21T03:30:00,1500.0,42.79,6.0312,-0.028,-0.013,0.0,47.0,49.0,50.0,12.8,1504.0,273.9,-0.1,0.8,1475.039,13.11,0.03,245.1
07,2022-09-21T04:00:00,1500.0,42.79,6.0312,-0.018,-0.011,-0.002,48.0,50.0,48.0,12.8,1504.0,271.9,0.1,1.0,1475.071,13.11,0.021,238.6
07,2022-09-21T04:30:00,1500.0,42.79,6.0312,-0.015,-0.007,0.0,46.0,49.0,47.0,12.8,1504.0,268.8,-0.1,0.6,1475.037,13.11,0.016,245.0
07,2022-09-21T05:00:00,1500.0,42.79,6.0312,-0.026,0.006,-0.001,48.0,47.0,48.0,12.8,1504.0,269.6,0.1,1.0,1475.08,13.11,0.026,283.0
07,2022-09-21T05:30:00,1500.0,42.79,6.0312,-0.029,0.0,0.013,49.0,51.0,48.0,12.8,1504.0,269.8,-0.1,1.0,1475.078,13.11,0.028,270.0
07,2022-09-21T06:00:00,1500.0,42.79,6.0312,-0.027,-0.001,0.003,49.0,49.0,51.0,12.8,1504.0,272.6,-0.3,1.0,1475.043,13.11,0.027,267.9
07,2022-09-21T06:30:00,1500.0,42.79,6.0312,-0.017,-0.003,0.003,48.0,49.0,48.0,12.8,1504.0,273.4,0.1,0.7,1475.068,13.11,0.017,260.0
07,2022-09-21T07:00:00,1500.0,42.79,6.0312,-0.021,0.002,-0.001,48.0,47.0,46.0,12.9,1504.0,271.1,-0.3,1.0,1475.016,13.11,0.021,275.4
07,2022-09-21T07:30:00,1500.0,42.79,6.0312,-0.024,0.005,0.01,49.0,49.0,46.0,12.8,1504.0,271.6,-0.2,0.6,1475.015,13.11,0.024,281.8
07,2022-09-21T08:00:00,1500.0,42.79,6.0312,-0.018,0.003,-0.015,47.0,49.0,46.0,12.9,1504.0,274.7,0.0,0.7,1474.994,13.11,0.018,279.5
07,2022-09-21T08:30:00,1500.0,42.79,6.0312,-0.012,-0.018,0.013,46.0,46.0,49.0,12.8,1504.0,275.6,0.0,0.7,1475.016,13.11,0.021,213.7
07,2022-09-21T09:00:00,1500.0,42.79,6.0312,-0.006,-0.008,0.01,47.0,48.0,48.0,12.8,1504.0,276.4,0.0,0.7,1475.01,13.11,0.01,216.9
07,2022-09-21T09:30:00,1500.0,42.79,6.0312,-0.008,-0.001,0.005,49.0,50.0,47.0,12.8,1504.0,280.8,0.0,0.7,1475.007,13.11,0.008,262.9
07,2022-09-21T10:00:00,1500.0,42.79,6.0312,-0.025,-0.015,0.012,46.0,50.0,48.0,12.8,1504.0,282.8,0.1,0.9,1475.035,13.11,0.029,239.0
07,2022-09-21T10:30:00,1500.0,42.79,6.0312,-0.012,-0.019,0.0,47.0,50.0,49.0,12.9,1504.0,283.6,0.1,1.0,1474.968,13.11,0.022,212.3
07,2022-09-21T11:00:00,1500.0,42.79,6.0312,-0.017,-0.015,-0.012,47.0,49.0,49.0,12.8,1504.1,285.1,0.0,0.8,1474.989,13.12,0.022,228.6
07,2022-09-21T11:30:00,1500.0,42.79,6.0312,-0.015,-0.022,-0.006,47.0,48.0,48.0,12.9,1504.1,285.2,0.1,0.7,1475.018,13.12,0.026,214.3
07,2022-09-21T12:00:00,1500.0,42.79,6.0312,-0.014,-0.015,0.01,48.0,48.0,50.0,12.8,1504.1,286.6,0.0,0.8,1475.03,13.12,0.02,223.0
07,2022-09-21T12:30:00,1500.0,42.79,6.0312,-0.018,-0.022,0.01,48.0,51.0,49.0,12.8,1504.1,285.9,0.0,0.7,1474.998,13.12,0.028,219.3
07,2022-09-21T13:00:00,1500.0,42.79,6.0312,-0.016,-0.02,0.005,47.0,48.0,48.0,12.9,1504.1,284.5,-0.3,1.0,1475.023,13.12,0.025,218.7
07,2022-09-21T13:30:00,1500.0,42.79,6.0312,-0.012,-0.015,0.005,48.0,49.0,47.0,12.8,1504.0,284.6,-0.2,1.0,1475.045,13.11,0.019,218.7
07,2022-09-21T14:00:00,1500.0,42.79,6.0312,-0.035,-0.009,0.012,48.0,51.0,49.0,12.8,1504.0,284.9,0.1,0.7,1475.073,13.11,0.036,255.6
07,2022-09-21T14:30:00,1500.0,42.79,6.0312,-0.027,-0.007,0.004,48.0,49.0,48.0,12.8,1504.0,286.1,0.2,0.9,1475.081,13.11,0.027,255.5
07,2022-09-21T15:00:00,1500.0,42.79,6.0312,-0.026,0.001,-0.012,48.0,50.0,49.0,12.8,1504.0,286.1,-0.1,0.7,1475.112,13.11,0.026,272.2
07,2022-09-21T15:30:00,1500.0,42.79,6.0312,-0.028,-0.016,-0.005,47.0,49.0,49.0,12.8,1504.0,284.1,0.1,0.7,1475.116,13.11,0.032,240.3
07,2022-09-21T16:00:00,1500.0,42.79,6.0312,-0.026,-0.007,0.007,49.0,50.0,49.0,12.8,1504.0,285.5,-0.2,0.7,1475.172,13.11,0.026,254.9
07,2022-09-21T16:30:00,1500.0,42.79,6.0312,-0.035,-0.009,-0.016,48.0,48.0,48.0,12.8,1504.0,282.2,-0.2,0.8,1475.139,13.11,0.036,255.6
07,2022-09-21T17:00:00,1500.0,42.79,6.0312,-0.017,-0.001,0.002,48.0,49.0,50.0,12.8,1504.0,278.3,-0.2,1.0,1475.173,13.11,0.017,266.6
07,2022-09-21T17:30:00,1500.0,42.79,6.0312,-0.027,0.011,0.0,49.0,49.0,48.0,12.8,1504.0,275.8,0.1,0.8,1475.156,13.11,0.029,292.2
07,2022-09-21T18:00:00,1500.0,42.79,6.0312,-0.024,-0.008,0.004,48.0,49.0,48.0,12.8,1504.0,270.0,0.1,0.8,1475.133,13.11,0.025,251.6
07,2022-09-21T18:30:00,1500.0,42.79,6.0312,-0.022,0.002,-0.002,51.0,49.0,48.0,12.8,1504.0,265.8,0.0,1.0,1475.208,13.11,0.022,275.2
07,2022-09-21T19:00:00,1500.0,42.79,6.0312,-0.028,-0.003,0.008,47.0,52.0,50.0,12.8,1504.0,264.3,-0.1,1.0,1475.139,13.11,0.028,263.9
07,2022-09-21T19:30:00,1500.0,42.79,6.0312,-0.012,-0.004,0.005,50.0,52.0,49.0,12.8,1504.0,263.6,0.1,0.7,1475.159,13.11,0.012,251.6
07,2022-09-21T20:00:00,1500.0,42.79,6.0312,-0.006,0.004,0.011,49.0,49.0,51.0,12.8,1504.0,265.7,0.1,0.7,1475.094,13.11,0.007,303.7
07,2022-09-21T20:30:00,1500.0,42.79,6.0312,-0.013,-0.001,-0.003,48.0,50.0,48.0,12.8,1504.0,265.3,0.1,0.8,1475.128,13.11,0.013,265.6
07,2022-09-21T21:00:00,1500.0,42.79,6.0312,-0.011,-0.001,0.007,47.0,49.0,50.0,12.8,1504.0,265.8,0.1,0.9,1475.072,13.11,0.011,264.8
07,2022-09-21T21:30:00,1500.0,42.79,6.0312,-0.012,-0.01,0.0,48.0,49.0,46.0,12.8,1504.0,267.9,0.2,1.0,1475.069,13.11,0.015,230.2
07,2022-09-21T22:00:00,1500.0,42.79,6.0312,-0.011,-0.006,-0.01,47.0,46.0,49.0,12.8,1504.0,267.5,-0.2,0.7,1475.069,13.11,0.012,241.4
07,2022-09-21T22:30:00,1500.0,42.79,6.0312,-0.01,-0.01,0.0,48.0,51.0,49.0,12.8,1504.0,268.9,-0.1,0.7,1475.028,13.11,0.014,225.0
07,2022-09-21T23:00:00,1500.0,42.79,6.0312,-0.007,-0.014,-0.007,48.0,47.0,49.0,12.8,1504.0,267.9,-0.2,1.0,1475.035,13.11,0.015,206.6
